Simultaneous Nadir Overpasses (SNOs) Predictions

Prediction of SNOs between FY3D and TERRA Satellite Orbit:

Table of predicted SNOs for the next 14.0 days since TLE Epoch: 10/28/2022
Index Date (FY3D) Time (FY3D) Lat,Lon (FY3D) SZA (FY3D ) Date (TERRA) Time (TERRA) Lat,Lon (TERRA) SZA (TERRA ) Distance(km) Time Diff (sec)
1 10/31/2022 04:28:44 -72.31, -67.43 93.67 10/31/2022 04:29:36 -72.30, -67.51 93.67 2.65 52
2 10/31/2022 05:19:29 72.21, 100.08 86.25 10/31/2022 05:18:59 72.21, 99.99 86.25 2.82 30
3 11/02/2022 17:23:27 -72.29, 98.96 92.87 11/02/2022 17:23:51 -72.30, 98.91 92.86 2.07 24
4 11/02/2022 18:14:12 72.18, -93.53 87.04 11/02/2022 18:13:14 72.20, -93.60 87.05 3.05 58
5 11/05/2022 05:27:27 72.38, 97.80 88.00 11/05/2022 05:28:38 72.40, 97.87 88.02 3.43 71
6 11/05/2022 06:18:09 -72.27, -94.67 92.11 11/05/2022 06:18:05 -72.28, -94.70 92.10 1.61 4
7 11/05/2022 07:08:45 71.71, 73.72 87.37 11/05/2022 07:07:36 71.75, 72.04 87.37 59.10 69
8 11/07/2022 18:22:10 72.37, -95.83 88.74 11/07/2022 18:22:53 72.36, -95.78 88.74 2.10 43
9 11/07/2022 19:12:52 -72.26, 71.70 91.36 11/07/2022 19:12:20 -72.24, 71.66 91.38 2.35 32
10 11/10/2022 07:16:52 72.31, 70.63 89.41 11/10/2022 07:17:08 72.30, 70.53 89.40 3.56 16
11 11/10/2022 08:07:35 -72.26,-121.94 90.64 11/10/2022 08:06:34 -72.24,-121.92 90.66 1.55 61



Historial Predications of SNOs between FY3D and TERRA
